• In Hungary
  • List of Countries
  • For 7 days
  • Water Temperature
  • Satellite Maps
  • Weather Map
  • News
  • Weather Widgets
  • user-avatar
    Login

    Hourly Weather Warszew

    Today, 23 October, Tuesday

    Time Temperature Precipitation Wind Pressure Humidity
    00:00 +5°C° 0 mm 4 mps 755 mmHg 85%
    01:00 +4°C° 0 mm 4 mps 755 mmHg 85%
    02:00 +4°C° 0 mm 4 mps 754 mmHg 85%
    03:00 +4°C° 0 mm 4 mps 753 mmHg 85%
    04:00 +3°C° 0 mm 5 mps 753 mmHg 85%
    05:00 +3°C° 0 mm 5 mps 752 mmHg 82%
    06:00 +3°C° 0 mm 6 mps 751 mmHg 78%
    07:00 +4°C° 0 mm 7 mps 750 mmHg 75%
    08:00 +4°C° 0.3 mm 8 mps 749 mmHg 73%
    09:00 +5°C° 0.3 mm 9 mps 748 mmHg 72%
    10:00 +5°C° 0.3 mm 10 mps 747 mmHg 70%
    11:00 +5°C° 1.1 mm 10 mps 746 mmHg 73%
    12:00 +4°C° 1.1 mm 11 mps 745 mmHg 75%
    13:00 +4°C° 1.1 mm 11 mps 744 mmHg 78%
    14:00 +6°C° 0.3 mm 11 mps 743 mmHg 78%
    15:00 +7°C° 0.3 mm 11 mps 742 mmHg 79%
    16:00 +7°C° 0.3 mm 12 mps 741 mmHg 79%
    17:00 +8°C° 1 mm 11 mps 740 mmHg 81%
    18:00 +8°C° 1 mm 11 mps 740 mmHg 83%
    19:00 +8°C° 1 mm 11 mps 739 mmHg 84%
    20:00 +9°C° 1.7 mm 11 mps 738 mmHg 85%
    21:00 +9°C° 1.7 mm 11 mps 738 mmHg 85%
    22:00 +9°C° 1.7 mm 10 mps 737 mmHg 85%
    23:00 +9°C° 1.8 mm 10 mps 736 mmHg 85%

    Tomorrow, 24 October, Wednesday

    Time Temperature Precipitation Wind Pressure Humidity
    00:00 +8°C° 1.8 mm 10 mps 736 mmHg 84%
    01:00 +8°C° 1.8 mm 10 mps 735 mmHg 84%
    02:00 +7°C° 0.9 mm 10 mps 735 mmHg 79%
    03:00 +7°C° 0.9 mm 11 mps 735 mmHg 74%
    04:00 +5°C° 0.9 mm 12 mps 735 mmHg 69%
    05:00 +4°C° 0.1 mm 11 mps 736 mmHg 68%
    06:00 +5°C° 0.1 mm 10 mps 737 mmHg 66%
    07:00 +3°C° 0.1 mm 9 mps 738 mmHg 64%
    08:00 +5°C° 0 mm 10 mps 739 mmHg 59%
    09:00 +4°C° 0 mm 11 mps 740 mmHg 54%
    10:00 +6°C° 0 mm 11 mps 740 mmHg 48%
    11:00 +6°C° 0 mm 11 mps 741 mmHg 46%
    12:00 +6°C° 0 mm 11 mps 741 mmHg 45%
    13:00 +7°C° 0 mm 11 mps 742 mmHg 43%
    14:00 +6°C° 0 mm 10 mps 742 mmHg 44%
    15:00 +6°C° 0 mm 10 mps 743 mmHg 45%
    16:00 +6°C° 0 mm 9 mps 743 mmHg 46%
    17:00 +5°C° 0 mm 8 mps 744 mmHg 48%
    18:00 +4°C° 0 mm 8 mps 745 mmHg 50%
    19:00 +4°C° 0 mm 7 mps 745 mmHg 53%
    20:00 +4°C° 0 mm 7 mps 745 mmHg 56%
    21:00 +3°C° 0 mm 7 mps 746 mmHg 59%
    22:00 +3°C° 0 mm 6 mps 746 mmHg 61%
    23:00 +3°C° 0 mm 6 mps 746 mmHg 63%

    Day after tomorrow, 25 October, Thursday

    Time Temperature Precipitation Wind Pressure Humidity
    00:00 +3°C° 0 mm 6 mps 746 mmHg 65%
    01:00 +2°C° 0 mm 6 mps 746 mmHg 67%
    02:00 +2°C° 0 mm 6 mps 746 mmHg 70%
    03:00 +2°C° 0 mm 6 mps 746 mmHg 73%
    04:00 +2°C° 0 mm 6 mps 745 mmHg 76%
    05:00 +3°C° 0.6 mm 6 mps 744 mmHg 80%
    06:00 +3°C° 0.6 mm 6 mps 743 mmHg 84%
    07:00 +3°C° 0.6 mm 7 mps 742 mmHg 87%
    08:00 +5°C° 0.5 mm 7 mps 742 mmHg 87%
    09:00 +6°C° 0.5 mm 8 mps 741 mmHg 86%
    10:00 +8°C° 0.5 mm 9 mps 740 mmHg 86%
    11:00 +8°C° 0.2 mm 9 mps 740 mmHg 83%
    12:00 +8°C° 0.2 mm 10 mps 740 mmHg 80%
    13:00 +9°C° 0.2 mm 10 mps 740 mmHg 77%
    14:00 +8°C° 0.2 mm 9 mps 740 mmHg 76%
    15:00 +8°C° 0.2 mm 9 mps 741 mmHg 74%
    16:00 +7°C° 0.2 mm 9 mps 741 mmHg 73%
    17:00 +7°C° 0 mm 8 mps 741 mmHg 74%
    18:00 +6°C° 0 mm 7 mps 742 mmHg 76%
    19:00 +6°C° 0 mm 7 mps 742 mmHg 77%
    20:00 +5°C° 0 mm 6 mps 743 mmHg 79%
    21:00 +5°C° 0 mm 6 mps 743 mmHg 80%
    22:00 +5°C° 0 mm 6 mps 744 mmHg 82%
    23:00 +6°C° 0 mm 5 mps 744 mmHg 83%

    26 October, Friday

    Time Temperature Precipitation Wind Pressure Humidity
    00:00 +5°C° 0 mm 5 mps 744 mmHg 84%
    01:00 +5°C° 0 mm 5 mps 744 mmHg 84%
    02:00 +5°C° 0 mm 5 mps 744 mmHg 85%
    03:00 +5°C° 0 mm 5 mps 744 mmHg 86%
    04:00 +5°C° 0 mm 4 mps 744 mmHg 87%
    05:00 +5°C° 0 mm 4 mps 744 mmHg 88%
    06:00 +4°C° 0 mm 4 mps 744 mmHg 89%
    07:00 +4°C° 0 mm 3 mps 744 mmHg 90%
    08:00 +5°C° 0 mm 4 mps 744 mmHg 86%
    09:00 +6°C° 0 mm 4 mps 743 mmHg 82%
    10:00 +7°C° 0 mm 4 mps 743 mmHg 78%
    11:00 +8°C° 0 mm 4 mps 743 mmHg 75%
    12:00 +10°C° 0 mm 4 mps 743 mmHg 73%
    13:00 +11°C° 0 mm 4 mps 742 mmHg 70%
    14:00 +11°C° 0 mm 3 mps 742 mmHg 73%
    15:00 +11°C° 0 mm 3 mps 742 mmHg 75%
    16:00 +11°C° 0 mm 3 mps 741 mmHg 78%
    17:00 +11°C° 0 mm 3 mps 741 mmHg 78%
    18:00 +10°C° 0 mm 4 mps 740 mmHg 79%
    19:00 +10°C° 0 mm 4 mps 740 mmHg 80%
    20:00 +10°C° 0 mm 4 mps 740 mmHg 80%
    21:00 +9°C° 0 mm 5 mps 739 mmHg 80%
    22:00 +9°C° 0 mm 5 mps 739 mmHg 80%
    23:00 +9°C° 0 mm 5 mps 739 mmHg 80%

    27 October, Saturday

    Time Temperature Precipitation Wind Pressure Humidity
    00:00 +9°C° 0 mm 5 mps 738 mmHg 81%
    01:00 +10°C° 0 mm 4 mps 738 mmHg 81%
    02:00 +10°C° 0 mm 4 mps 738 mmHg 82%
    03:00 +8°C° 0 mm 4 mps 737 mmHg 84%
    04:00 +8°C° 0 mm 4 mps 737 mmHg 86%
    05:00 +8°C° 0 mm 4 mps 737 mmHg 86%
    06:00 +7°C° 0 mm 4 mps 738 mmHg 87%
    07:00 +7°C° 0 mm 4 mps 738 mmHg 87%
    08:00 +7°C° 0.1 mm 5 mps 738 mmHg 81%
    09:00 +7°C° 0.1 mm 5 mps 739 mmHg 75%
    10:00 +8°C° 0.1 mm 5 mps 739 mmHg 69%
    11:00 +8°C° 0 mm 5 mps 739 mmHg 65%
    12:00 +8°C° 0 mm 5 mps 739 mmHg 60%
    13:00 +8°C° 0 mm 5 mps 739 mmHg 56%
    14:00 +8°C° 0 mm 5 mps 739 mmHg 57%
    15:00 +7°C° 0 mm 4 mps 739 mmHg 59%
    16:00 +8°C° 0 mm 3 mps 739 mmHg 60%
    17:00 +8°C° 0 mm 3 mps 739 mmHg 62%
    18:00 +7°C° 0 mm 3 mps 739 mmHg 64%
    19:00 +7°C° 0 mm 3 mps 739 mmHg 66%
    20:00 +7°C° 0 mm 2 mps 739 mmHg 67%
    21:00 +7°C° 0 mm 2 mps 739 mmHg 68%
    22:00 +6°C° 0 mm 2 mps 739 mmHg 69%
    23:00 +6°C° 0 mm 2 mps 739 mmHg 70%

    28 October, Sunday

    Time Temperature Precipitation Wind Pressure Humidity
    00:00 +6°C° 0 mm 2 mps 739 mmHg 71%
    01:00 +7°C° 0 mm 1 mps 739 mmHg 72%
    02:00 +7°C° 0.1 mm 1 mps 739 mmHg 73%
    03:00 +7°C° 0.1 mm 1 mps 738 mmHg 73%
    04:00 +6°C° 0.1 mm 1 mps 738 mmHg 74%
    05:00 +6°C° 0.1 mm 1 mps 738 mmHg 74%
    06:00 +6°C° 0.1 mm 1 mps 738 mmHg 74%
    07:00 +6°C° 0.1 mm 1 mps 738 mmHg 74%
    08:00 +5°C° 0.2 mm 2 mps 738 mmHg 73%
    09:00 +6°C° 0.2 mm 2 mps 739 mmHg 71%
    10:00 +5°C° 0.2 mm 3 mps 739 mmHg 70%
    11:00 +5°C° 0.1 mm 3 mps 740 mmHg 67%
    12:00 +6°C° 0.1 mm 4 mps 740 mmHg 64%
    13:00 +6°C° 0.1 mm 4 mps 740 mmHg 61%
    14:00 +6°C° 0 mm 4 mps 741 mmHg 61%
    15:00 +6°C° 0 mm 4 mps 741 mmHg 62%
    16:00 +7°C° 0 mm 3 mps 742 mmHg 62%
    17:00 +5°C° 0 mm 3 mps 742 mmHg 65%
    18:00 +4°C° 0 mm 3 mps 743 mmHg 67%
    19:00 +3°C° 0 mm 3 mps 743 mmHg 70%
    20:00 +3°C° 0 mm 3 mps 744 mmHg 72%
    21:00 +3°C° 0 mm 3 mps 744 mmHg 73%
    22:00 +2°C° 0 mm 3 mps 745 mmHg 75%
    23:00 +2°C° 0 mm 3 mps 745 mmHg 77%

    29 October, Monday

    Time Temperature Precipitation Wind Pressure Humidity
    00:00 +2°C° 0 mm 3 mps 745 mmHg 79%
    01:00 +2°C° 0 mm 3 mps 746 mmHg 80%
    02:00 +1°C° 0 mm 3 mps 746 mmHg 82%
    03:00 +1°C° 0 mm 3 mps 746 mmHg 83%
    04:00 +1°C° 0 mm 3 mps 746 mmHg 85%
    05:00 +1°C° 0 mm 3 mps 747 mmHg 86%
    06:00 +1°C° 0 mm 2 mps 747 mmHg 86%
    07:00 +1°C° 0 mm 2 mps 747 mmHg 87%
    08:00 +3°C° 0 mm 2 mps 748 mmHg 81%
    09:00 +4°C° 0 mm 2 mps 748 mmHg 75%
    10:00 +5°C° 0 mm 2 mps 748 mmHg 68%
    11:00 +6°C° 0 mm 2 mps 748 mmHg 65%
    12:00 +7°C° 0 mm 1 mps 748 mmHg 62%
    13:00 +8°C° 0 mm 1 mps 748 mmHg 59%
    14:00 +7°C° 0 mm 1 mps 748 mmHg 61%
    15:00 +7°C° 0 mm 1 mps 748 mmHg 63%
    16:00 +7°C° 0 mm 1 mps 747 mmHg 65%
    17:00 +7°C° 0 mm 1 mps 747 mmHg 66%
    18:00 +6°C° 0 mm 1 mps 748 mmHg 67%
    19:00 +5°C° 0 mm 2 mps 748 mmHg 68%
    20:00 +5°C° 0 mm 2 mps 747 mmHg 69%
    21:00 +5°C° 0 mm 2 mps 747 mmHg 71%
    22:00 +4°C° 0 mm 3 mps 747 mmHg 72%
    23:00 +3°C° 0.2 mm 3 mps 746 mmHg 74%
    Show more